Location: Treviso
(45.6669°N, 12.2430°E)
Time: 06:40:35
(UTC+01:00)

ISS - Pass Details

Date: 17 January 2021
Orbit: 418 x 421 km, 51.6° (Epoch: 23 January)

Event Time Altitude Azimuth Distance (km) Brightness Sun altitude
Rises 19:24:12 0° 217° (SW) 2,358 0.6 -25.4°
Reaches altitude 10° 19:26:24 10° 208° (SSW) 1,498 -0.6 -25.8°
Enters shadow 19:26:49 13° 205° (SSW) 1,346 -0.9 -25.8°
